Date String (YYYY-MM-DD hh:mm:ss) UTC,Instrument flags,Ambient pressure (hPa),Sample flow (lpm),Bypass flow (lpm),Sample temperature (°C),Ambient temperature (°C),ASC tube jacket temperature (°C),LED temperature (°C),Box temperature (°C),Sample RH (%),Span deviation,Mass concentration (μg/m³),Mass concentration (μg/m³),Mass concentration (μg/m³)
DateTimeUTC,F1_M11,P_M11,Q1_M11,Q2_M11,T1_M11,T2_M11,T3_M11,T4_M11,T5_M11,U1_M11,ZSPAN_M11,X2_M11,X0_M11,X1_M11
2021-10-01 04:00:00,,0833.4,5.00,0.00,29.3,28.3,00.0,38.4,31.0,21.3,0001.8,0004.34,0008.92,0004.04
2021-10-01 04:01:00,,0833.4,5.02,0.00,29.3,28.3,00.0,38.4,31.0,21.3,0001.9,0004.34,0008.92,0004.04
2021-10-01 04:02:00,,0833.4,5.00,0.00,29.3,28.3,00.0,38.4,31.0,21.9,0001.6,0004.32,0008.92,0004.03
2021-10-01 04:03:00,,0833.4,5.00,0.00,29.3,28.3,00.0,38.4,31.0,21.9,0001.4,0004.30,0008.84,0004.01
2021-10-01 04:04:00,,0833.4,4.99,0.00,29.3,28.3,00.0,38.4,31.0,21.8,0001.7,0004.27,0007.99,0003.99
2021-10-01 04:05:00,,0833.4,4.99,0.00,29.3,28.3,00.0,38.4,31.0,21.6,0001.5,0004.24,0007.88,0003.95
2021-10-01 04:06:00,,0833.4,5.00,0.00,29.3,28.3,00.0,38.4,31.0,21.3,0002.0,0004.19,0006.97,0003.93
2021-10-01 04:07:00,,0833.4,5.01,0.00,29.3,28.3,00.0,38.4,31.0,21.0,0001.7,0004.19,0006.94,0003.91
2021-10-01 04:08:00,,0833.4,5.00,0.00,29.3,28.3,00.0,38.4,31.0,20.9,0001.5,0004.19,0008.04,0003.90
2021-10-01 04:09:00,,0833.4,5.00,0.00,29.3,28.3,00.0,38.4,31.0,21.0,0001.9,0004.19,0008.04,0003.89
2021-10-01 04:10:00,,0833.5,5.00,0.00,29.3,28.3,00.0,38.4,31.0,20.8,0001.6,0004.19,0008.07,0003.87
2021-10-01 04:11:00,,0833.5,4.99,0.00,29.3,28.3,00.0,38.4,31.0,21.0,0001.0,0004.19,0008.24,0003.86
2021-10-01 04:12:00,,0833.4,5.01,0.00,29.3,28.3,00.0,38.4,31.0,21.2,0001.3,0004.26,0008.43,0003.87
2021-10-01 04:13:00,,0833.5,5.00,0.00,29.3,28.3,00.0,38.4,31.0,21.2,0001.8,0004.30,0008.52,0003.88
2021-10-01 04:14:00,,0833.4,4.99,0.00,29.3,28.3,00.0,38.4,31.0,21.1,0000.4,0004.32,0008.58,0003.90
2021-10-01 04:15:00,,0833.4,5.01,0.00,29.3,28.4,00.0,38.4,31.0,21.0,0000.6,0004.36,0008.71,0003.91
2021-10-01 04:16:00,,0833.4,5.00,0.00,29.3,28.4,00.0,38.4,31.0,21.0,0002.5,0004.37,0008.72,0003.93
2021-10-01 04:17:00,,0833.5,4.98,0.00,29.3,28.4,00.0,38.4,31.0,20.8,0001.9,0004.40,0008.80,0003.94
2021-10-01 04:18:00,,0833.4,5.02,0.00,29.3,28.4,00.0,38.4,31.0,20.9,0001.5,0004.40,0008.68,0003.94
2021-10-01 04:19:00,,0833.4,5.00,0.00,29.3,28.4,00.0,38.4,31.0,20.6,0001.5,0004.37,0007.71,0003.94
2021-10-01 04:20:00,,0833.4,4.99,0.00,29.3,28.4,00.0,38.4,31.1,20.7,0001.4,0004.40,0007.70,0003.94
2021-10-01 04:21:00,,0833.4,5.00,0.00,29.3,28.4,00.0,38.4,31.1,20.6,0002.0,0004.39,0007.78,0003.94
2021-10-01 04:22:00,,0833.4,5.00,0.00,29.3,28.4,00.0,38.4,31.1,20.4,0002.3,0004.39,0008.03,0003.94
2021-10-01 04:23:00,,0833.4,5.00,0.00,29.3,28.4,00.0,38.4,31.1,20.2,0001.7,0004.35,0007.96,0003.92
2021-10-01 04:24:00,,0833.4,4.99,0.00,29.3,28.4,00.0,38.4,31.1,20.1,0000.7,0004.31,0007.92,0003.91
2021-10-01 04:25:00,,0833.4,5.01,0.00,29.3,28.4,00.0,38.4,31.0,20.1,0000.2,0004.30,0008.31,0003.89
2021-10-01 04:26:00,,0833.5,5.01,0.00,29.3,28.4,00.0,38.4,31.1,20.0,0000.6,0004.31,0008.64,0003.88
2021-10-01 04:27:00,,0833.4,4.99,0.00,29.3,28.4,00.0,38.4,31.1,19.7,0000.0,0004.31,0008.70,0003.86
2021-10-01 04:28:00,,0833.4,5.00,0.00,29.3,28.4,00.0,38.4,31.1,19.8,0000.3,0004.31,0008.83,0003.85
2021-10-01 04:29:00,,0833.4,5.00,0.00,29.3,28.4,00.0,38.4,31.1,19.9,0000.8,0004.35,0009.07,0003.84
2021-10-01 04:30:00,,0833.4,5.01,0.00,29.3,28.4,00.0,38.4,31.1,19.7,0001.1,0004.36,0009.03,0003.83
2021-10-01 04:31:00,,0833.5,4.99,0.00,29.3,28.4,00.0,38.4,31.1,19.5,0001.0,0004.35,0008.99,0003.80
2021-10-01 04:32:00,,0833.5,5.00,0.00,29.3,28.5,00.0,38.5,31.1,19.4,-000.0,0004.32,0008.84,0003.78
2021-10-01 04:33:00,,0833.5,5.01,0.00,29.3,28.5,00.0,38.5,31.1,19.0,-000.4,0004.29,0008.41,0003.75
2021-10-01 04:34:00,,0833.6,5.00,0.00,29.3,28.4,00.0,38.5,31.1,19.2,0000.4,0004.25,0008.35,0003.72
2021-10-01 04:35:00,,0833.6,4.99,0.00,29.3,28.4,00.0,38.5,31.1,21.2,0001.5,0004.25,0008.95,0003.71
2021-10-01 04:36:00,,0833.6,4.99,0.00,29.3,28.4,00.0,38.4,31.1,22.3,0002.1,0004.25,0008.70,0003.74
2021-10-01 04:37:00,,0833.6,5.01,0.00,29.3,28.4,00.0,38.4,31.1,22.4,0001.9,0004.23,0008.33,0003.77
2021-10-01 04:38:00,,0833.5,4.99,0.00,29.3,28.4,00.0,38.4,31.1,22.3,0001.4,0004.25,0008.31,0003.79
2021-10-01 04:39:00,,0833.6,5.00,0.00,29.3,28.4,00.0,38.4,31.0,22.3,0001.1,0004.25,0008.21,0003.81
2021-10-01 04:40:00,,0833.5,5.01,0.00,29.2,28.3,00.0,38.4,31.0,21.8,0000.5,0004.23,0008.06,0003.83
2021-10-01 04:41:00,,0833.5,4.99,0.00,29.2,28.3,00.0,38.4,31.0,21.1,0000.5,0004.22,0008.28,0003.84
2021-10-01 04:42:00,,0833.5,5.01,0.00,29.2,28.3,00.0,38.4,31.0,20.7,0000.5,0004.20,0008.72,0003.83
2021-10-01 04:43:00,,0833.6,4.99,0.00,29.2,28.3,00.0,38.4,31.0,20.7,0000.9,0004.21,0008.74,0003.83
2021-10-01 04:44:00,,0833.6,4.99,0.00,29.2,28.3,00.0,38.4,31.0,21.4,0001.0,0004.22,0008.72,0003.85
2021-10-01 04:45:00,,0833.6,5.02,0.00,29.2,28.3,00.0,38.3,30.9,21.7,0000.5,0004.22,0009.19,0003.86
2021-10-01 04:46:00,,0833.6,4.98,0.00,29.1,28.2,00.0,38.3,30.9,21.8,0000.8,0004.22,0008.63,0003.87
2021-10-01 04:47:00,,0833.6,5.00,0.00,29.1,28.2,00.0,38.3,30.9,22.0,0000.5,0004.22,0008.77,0003.84
2021-10-01 04:48:00,,0833.6,5.00,0.00,29.1,28.2,00.0,38.3,30.9,22.2,0000.4,0004.18,0009.05,0003.81
2021-10-01 04:49:00,,0833.6,5.00,0.00,29.1,28.2,00.0,38.3,30.8,22.4,0001.2,0004.15,0009.41,0003.80
2021-10-01 04:50:00,,0833.6,5.01,0.00,29.1,28.2,00.0,38.3,30.8,22.5,0001.8,0004.13,0009.60,0003.80
2021-10-01 04:51:00,,0833.6,4.99,0.00,29.1,28.2,00.0,38.3,30.8,22.8,0002.4,0004.12,0009.55,0003.81
2021-10-01 04:52:00,,0833.5,5.01,0.00,29.0,28.1,00.0,38.2,30.8,23.2,0002.5,0004.21,0009.41,0003.87
2021-10-01 04:53:00,,0833.5,5.00,0.00,29.0,28.1,00.0,38.2,30.8,23.4,0002.3,0004.31,0009.07,0003.96
2021-10-01 04:54:00,,0833.6,5.00,0.00,29.0,28.1,00.0,38.2,30.8,23.7,0002.2,0004.40,0009.17,0004.06
2021-10-01 04:55:00,,0833.6,5.02,0.00,29.0,28.1,00.0,38.2,30.8,23.8,0002.2,0004.51,0009.27,0004.18
2021-10-01 04:56:00,,0833.5,5.00,0.00,29.0,28.1,00.0,38.2,30.8,24.0,0002.3,0004.64,0008.80,0004.30
2021-10-01 04:57:00,,0833.5,5.00,0.00,29.0,28.1,00.0,38.2,30.7,24.0,0002.3,0004.74,0008.90,0004.40
2021-10-01 04:58:00,,0833.5,5.00,0.00,28.9,28.1,00.0,38.2,30.7,23.9,0002.6,0004.86,0008.79,0004.51
2021-10-01 04:59:00,,0833.5,5.00,0.00,28.9,28.1,00.0,38.1,30.7,23.7,0003.1,0004.98,0008.55,0004.61
